Evansville, IN

9:39 PM CST on December 14, 2017 (GMT -0600)
Evansville Regional

Weather History for KEVV - May, 2014

Change the Weather History Date:

Thursday, May 15, 2014

  Actual Average Record
Temperature  
Mean Temperature 54 °F 65 °F  
Max Temperature 61 °F 77 °F 92 °F (1988)
Min Temperature 47 °F 54 °F 38 °F (1977)
Degree Days  
Heating Degree Days 11 3  
Month to date heating degree days 53 58  
Since 1 July heating degree days 4941 4513  
Cooling Degree Days 0 3  
Month to date cooling degree days 74 32  
Year to date cooling degree days 84 59  
Growing Degree Days 4 (Base 50)    
Moisture  
Dew Point 45 °F    
Average Humidity 71    
Maximum Humidity 93    
Minimum Humidity 49    
Precipitation  
Precipitation 0.29 in 0.17 in 1.75 in (1923)
Month to date precipitation 3.64 2.63  
Year to date precipitation 21.41 17.51  
Snow  
Snow 0.00 in 0.00 in 0.00 in (2002)
Month to date snowfall 0.0 0.0  
Since 1 July snowfall 12.6 11.8  
Snow Depth 0.00 in    
Sea Level Pressure  
Sea Level Pressure 30.02 in    
Wind  
Wind Speed 5 mph (WNW)    
Max Wind Speed 18 mph    
Max Gust Speed 28 mph    
Visibility 8 miles    
Events Rain    
T = Trace of Precipitation, MM = Missing Value Source: NWS Daily Summary

Daily Weather History Graph

Daily Weather History Graph

Search for Another Location

Airport or City:

Trip Planner

Search our weather history database for the weather conditions in past years. The results will help you decide how hot, cold, wet, or windy it might be!

Date:

Astronomy

May. 15, 2014 Rise Set
Actual Time 5:39 AM CDT 7:53 PM CDT
Civil Twilight 5:10 AM CDT 8:23 PM CDT
Nautical Twilight 4:33 AM CDT 8:59 PM CDT
Astronomical Twilight 3:54 AM CDT 9:39 PM CDT
Moon 9:01 PM CDT 6:25 AM CDT
Length of Visible Light 15h 13m
Length of Day
14h 14m
Full, 99% of the Moon is Illuminated
May 15
Full
May 21
Last Quarter
May 28
New
Jun 5
First Quarter
Jun 12
Full

Hourly Weather History & Observations

Time (CDT) Temp. Dew Point Humidity Pressure Visibility Wind Dir Wind Speed Gust Speed Precip Events Conditions
12:01 AM 50.0 °F 46.9 °F 89% 29.93 in 10.0 mi WNW 8.1 mph - N/A   Overcast
12:27 AM 48.9 °F 46.0 °F 90% 29.93 in 10.0 mi WNW 10.4 mph 17.3 mph N/A   Overcast
12:54 AM 48.9 °F 46.0 °F 90% 29.93 in 8.0 mi WNW 9.2 mph - N/A   Overcast
1:03 AM 48.9 °F 46.0 °F 90% 29.93 in 8.0 mi WNW 8.1 mph - N/A   Overcast
1:54 AM 48.9 °F 45.0 °F 86% 29.92 in 10.0 mi WNW 6.9 mph - N/A   Overcast
2:54 AM 48.9 °F 46.0 °F 90% 29.93 in 8.0 mi WNW 5.8 mph - N/A   Overcast
3:27 AM 48.9 °F 45.0 °F 86% 29.94 in 10.0 mi Variable 6.9 mph - N/A   Overcast
3:54 AM 48.9 °F 45.0 °F 86% 29.94 in 10.0 mi WNW 8.1 mph - N/A   Overcast
4:40 AM 48.0 °F 45.0 °F 89% 29.96 in 8.0 mi WNW 8.1 mph - N/A   Overcast
4:54 AM 48.0 °F 45.0 °F 89% 29.96 in 8.0 mi WNW 6.9 mph - N/A   Overcast
5:54 AM 48.0 °F 44.1 °F 86% 29.98 in 10.0 mi Variable 6.9 mph - N/A   Overcast
6:08 AM 48.0 °F 44.1 °F 86% 29.98 in 10.0 mi WNW 8.1 mph - N/A   Overcast
6:19 AM 48.0 °F 44.1 °F 86% 29.99 in 10.0 mi WNW 9.2 mph - N/A   Overcast
6:45 AM 48.0 °F 43.0 °F 83% 30.00 in 10.0 mi NW 9.2 mph 19.6 mph N/A   Overcast
6:54 AM 48.0 °F 43.0 °F 83% 30.01 in 10.0 mi NW 4.6 mph - N/A   Overcast
7:54 AM 46.9 °F 44.1 °F 90% 30.03 in 4.0 mi WNW 5.8 mph - 0.00 in Rain Light Rain
8:24 AM 46.9 °F 44.1 °F 90% 30.04 in 4.0 mi WNW 9.2 mph - 0.01 in Rain Light Rain
8:37 AM 46.9 °F 44.1 °F 90% 30.04 in 2.5 mi West 5.8 mph - 0.01 in Rain Light Rain
8:41 AM 46.9 °F 44.1 °F 90% 30.04 in 3.0 mi WNW 8.1 mph - 0.02 in Rain Light Rain
8:54 AM 48.0 °F 45.0 °F 89% 30.05 in 6.0 mi West 6.9 mph - 0.02 in Rain Light Rain
9:06 AM 48.0 °F 44.1 °F 86% 30.05 in 4.0 mi West 6.9 mph - 0.00 in Rain Light Rain
9:54 AM 48.0 °F 45.0 °F 89% 30.07 in 4.0 mi West 9.2 mph - 0.00 in   Overcast
10:46 AM 50.0 °F 45.0 °F 83% 30.08 in 10.0 mi West 6.9 mph 16.1 mph 0.01 in   Overcast
10:54 AM 51.1 °F 44.1 °F 77% 30.08 in 10.0 mi WNW 6.9 mph 16.1 mph 0.01 in   Overcast
11:16 AM 52.0 °F 44.1 °F 74% 30.08 in 10.0 mi WNW 5.8 mph - N/A   Overcast
11:54 AM 54.0 °F 43.0 °F 66% 30.08 in 10.0 mi NW 11.5 mph - N/A   Mostly Cloudy
12:54 PM 55.9 °F 43.0 °F 62% 30.08 in 10.0 mi WNW 10.4 mph 17.3 mph N/A   Mostly Cloudy
2:54 PM 57.9 °F 42.1 °F 56% 30.07 in 10.0 mi West 6.9 mph - N/A   Overcast
3:54 PM 60.1 °F 42.1 °F 51% 30.05 in 10.0 mi Calm Calm - N/A   Mostly Cloudy
4:54 PM 60.1 °F 41.0 °F 49% 30.03 in 10.0 mi Variable 3.5 mph - N/A   Mostly Cloudy
5:54 PM 60.1 °F 42.1 °F 51% 30.03 in 10.0 mi Calm Calm - N/A   Overcast
6:54 PM 59.0 °F 44.1 °F 58% 30.03 in 10.0 mi East 3.5 mph - N/A   Mostly Cloudy
7:54 PM 57.9 °F 46.0 °F 65% 30.04 in 10.0 mi Calm Calm - N/A   Overcast
8:54 PM 51.1 °F 46.9 °F 86% 30.07 in 4.0 mi NW 8.1 mph 19.6 mph 0.04 in Rain Rain
9:54 PM 51.1 °F 48.0 °F 89% 30.09 in 10.0 mi Variable 3.5 mph - 0.12 in   Overcast
10:35 PM 51.1 °F 46.9 °F 86% 30.08 in 10.0 mi Calm Calm - 0.00 in Rain Light Rain
10:54 PM 51.1 °F 46.9 °F 86% 30.08 in 7.0 mi Calm Calm - 0.01 in Rain Light Rain
11:54 PM 50.0 °F 46.9 °F 89% 30.06 in 7.0 mi Calm Calm - 0.06 in Rain Rain